Weather History for Evanston, WY

Change the Weather History Date:

Saturday, March 30, 2013

  Actual Average Record
Temperature  
Mean Temperature 44 °F 35 °F  
Max Temperature 56 °F 44 °F 64 °F (2004)
Min Temperature 32 °F 26 °F 16 °F (2009)
Degree Days  
Heating Degree Days 21 30  
Month to date heating degree days 975 1030  
Since 1 July heating degree days 6570 7038  
Cooling Degree Days 0 0  
Month to date cooling degree days 0 0  
Year to date cooling degree days 0 0  
Moisture  
Dew Point 24 °F    
Average Humidity 48    
Maximum Humidity 69    
Minimum Humidity 26    
Precipitation  
Precipitation 0.00 in 0.04 in 0.02 in (2005)
Month to date precipitation 0.41 0.82  
Year to date precipitation 0.88 1.97  
Sea Level Pressure  
Sea Level Pressure 30.12 in    
Wind  
Wind Speed 11 mph (West)    
Max Wind Speed 21 mph    
Max Gust Speed 33 mph    
Visibility 10 miles    
Events      
T = Trace of Precipitation, MM = Missing Value Source: NWS Daily Summary

Daily Weather History Graph

Daily Weather History Graph

Search for Another Location

Airport:

Trip Planner

Search our weather history database for the weather conditions in past years. The results will help you decide how hot, cold, wet, or windy it might be!

Date:

Astronomy

Mar. 30, 2013 Rise Set
Actual Time 7:10 AM MDT 7:47 PM MDT
Civil Twilight 6:42 AM MDT 8:15 PM MDT
Nautical Twilight 6:09 AM MDT 8:48 PM MDT
Astronomical Twilight 5:35 AM MDT 9:22 PM MDT
Moon No Moon Rise 9:05 AM MDT (3/30)
Length of Visible Light 13h 32m
Length of Day
12h 37m
Waning Gibbous, 86% of the Moon is Illuminated
Mar 30
Waning Gibbous
Apr 2
Last Quarter
Apr 10
New
Apr 18
First Quarter
Apr 25
Full

Hourly Weather History & Observations

Time (MDT) Temp. Windchill Dew Point Humidity Pressure Visibility Wind Dir Wind Speed Gust Speed Precip Events Conditions
12:53 AM 37.0 °F 31.0 °F 24.1 °F 59% 30.12 in 10.0 mi SW 8.1 mph - N/A   Clear
1:53 AM 37.9 °F 34.4 °F 24.1 °F 57% 30.11 in 10.0 mi SW 4.6 mph - N/A   Clear
2:53 AM 36.0 °F 29.6 °F 24.1 °F 62% 30.12 in 10.0 mi SW 8.1 mph - N/A   Clear
3:53 AM 34.0 °F 26.0 °F 25.0 °F 70% 30.13 in 10.0 mi WSW 10.4 mph - N/A   Scattered Clouds
4:53 AM 33.1 °F 26.1 °F 24.1 °F 70% 30.12 in 10.0 mi WSW 8.1 mph - N/A   Partly Cloudy
5:53 AM 34.0 °F 28.8 °F 24.1 °F 67% 30.12 in 10.0 mi SW 5.8 mph - N/A   Mostly Cloudy
6:53 AM 33.1 °F 24.9 °F 24.1 °F 70% 30.14 in 10.0 mi SW 10.4 mph - N/A   Partly Cloudy
7:53 AM 35.1 °F - 24.1 °F 64% 30.17 in 10.0 mi Calm Calm - N/A   Scattered Clouds
8:53 AM 39.0 °F 34.8 °F 27.0 °F 62% 30.17 in 10.0 mi SSW 5.8 mph - N/A   Scattered Clouds
9:53 AM 45.0 °F 40.1 °F 28.9 °F 53% 30.15 in 10.0 mi WSW 9.2 mph - N/A   Partly Cloudy
10:53 AM 50.0 °F - 28.0 °F 43% 30.12 in 10.0 mi WSW 13.8 mph - N/A   Partly Cloudy
11:53 AM 52.0 °F - 24.1 °F 34% 30.12 in 10.0 mi WNW 19.6 mph 26.5 mph N/A   Partly Cloudy
12:53 PM 54.0 °F - 23.0 °F 30% 30.12 in 10.0 mi West 19.6 mph 26.5 mph N/A   Clear
1:53 PM 54.0 °F - 24.1 °F 31% 30.11 in 10.0 mi West 13.8 mph 25.3 mph N/A   Clear
2:53 PM 55.0 °F - 23.0 °F 29% 30.10 in 10.0 mi NW 17.3 mph 27.6 mph N/A   Partly Cloudy
3:53 PM 55.0 °F - 21.0 °F 27% 30.10 in 10.0 mi WNW 20.7 mph 26.5 mph N/A   Mostly Cloudy
4:53 PM 54.0 °F - 19.9 °F 26% 30.10 in 10.0 mi NNW 13.8 mph 20.7 mph N/A   Partly Cloudy
5:53 PM 54.0 °F - 19.9 °F 26% 30.10 in 10.0 mi WNW 8.1 mph - N/A   Mostly Cloudy
6:53 PM 50.0 °F - 21.0 °F 32% 30.12 in 10.0 mi North 9.2 mph - N/A   Clear
7:53 PM 46.0 °F 42.5 °F 23.0 °F 40% 30.13 in 10.0 mi North 6.9 mph - N/A   Clear
8:53 PM 43.0 °F 38.8 °F 26.1 °F 51% 30.14 in 10.0 mi NNW 6.9 mph - N/A   Clear
9:53 PM 39.9 °F 34.5 °F 25.0 °F 55% 30.13 in 10.0 mi NNW 8.1 mph - N/A   Clear
10:53 PM 37.9 °F 32.1 °F 25.0 °F 60% 30.12 in 10.0 mi NNE 8.1 mph - N/A   Clear
11:53 PM 37.9 °F 32.7 °F 25.0 °F 60% 30.11 in 10.0 mi North 6.9 mph - N/A   Clear